Northumberland Strait - western half: Past 24 Hour Conditions

 

Bonavista

05:30 AM NDT 22 September 2014
This table is a summary of hourly weather conditions for the past 24 hours.
Date / Time
(NDT)
Wind(knots) Conditions Visibility(km) Pressure(kPa) Air tempC) Relative humidity(%) Dew pointC)
22 September 2014
5:30 SSW 16 N/A N/A 101.8 18 89 16
4:30 SW 21 gust 29 N/A N/A 101.8 18 82 15
3:30 SW 23 gust 28 N/A N/A 101.7 18 80 14
2:30 SW 22 gust 29 N/A N/A 101.8 17 83 14
1:30 SSW 19 gust 26 N/A N/A 101.8 17 86 14
0:30 SW 23 gust 32 N/A N/A 101.8 17 86 15
21 September 2014
23:30 SW 22 gust 30 N/A N/A 101.8 17 84 14
22:30 SW 24 gust 29 N/A N/A 101.8 17 79 13
21:30 SW 23 N/A N/A 101.7 17 77 13
20:30 SW 20 gust 25 N/A N/A 101.8 17 73 12
19:30 SW 23 gust 28 N/A N/A 101.7 17 71 11
18:30 SW 33 gust 39 N/A N/A 101.6 18 64 11
17:30 SW 32 gust 40 N/A N/A 101.6 19 57 10
16:30 SW 27 gust 34 N/A N/A 101.6 19 63 12
15:30 WSW 20 gust 27 N/A N/A 101.6 19 69 13
14:30 WSW 19 N/A N/A 101.6 18 73 13
13:30 WSW 27 N/A N/A 101.6 18 74 13
12:30 WSW 26 gust 34 N/A N/A 101.6 17 77 13
11:30 WSW 26 gust 31 N/A N/A 101.6 16 80 12
10:30 SW 26 gust 32 N/A N/A 101.6 15 83 12
9:30 SW 26 gust 33 N/A N/A 101.6 15 80 12
8:30 WSW 25 gust 30 N/A N/A 101.6 15 78 11
7:30 WSW 21 gust 26 N/A N/A 101.6 14 80 11
6:30 WSW 24 gust 31 N/A N/A 101.5 14 77 10
5:30 WSW 24 gust 32 N/A N/A 101.5 14 78 11
 
Map of Atlantic - Newfoundland marine weather areas Southwestern Grand Banks - 44138 Banquereau - 44139 Tail of the Bank - 44140 Nickerson Bank - 44251 Northeast Burgeo Bank - 44255 Blanc-Sablon Airport Cap Whittle Chevery Natashquan Airport Heath Point Miscou Island Grand Étang Ingonish Beach North Mountain St.Paul Island J.A. Douglas McCurdy Sydney Airport Charlottetown Airport East Point North Cape Argentia Bonavista Burgeo Cape Race Corner Brook Daniel's Harbour Englee Ferolle Point La Scie Port aux Basques Rocky Harbour Sagona Island St. Anthony Airport St. John's Int'l Airport St. Lawrence Stephenville Airport Twillingate Winterland Wreckhouse Cartwright Airport Mary's Harbour Grates Cove Pool's Island Marticot Island Long Pond Îles de la Madeleine Airport
Legend: buoyBuoy land stationLand Station